| time (UTC) | temp C | wind direction | speed KPH | gust KPH | rain 1hr cm | rain 24hr cm | rain mn cm | humidity % | barometer mb |
| 20260506201021 | -17 | 10 | 12.9 | 17.7 | 0.00 | 0.00 | 0.00 | 1005.6 | |
| 20260506200511 | -17 | 10 | 11.3 | 17.7 | 0.00 | 0.00 | 0.00 | 1005.7 | |
| 20260506200001 | -17 | 10 | 9.7 | 16.1 | 0.00 | 0.00 | 0.00 | 1005.8 | |
| 20260506195451 | -17 | 10 | 11.3 | 16.1 | 0.00 | 0.00 | 0.00 | 1005.8 | |
| 20260506194941 | -17 | 10 | 9.7 | 16.1 | 0.00 | 0.00 | 0.00 | 1005.8 | |
| 20260506194702 | -17 | 10 | 4.8 | 16.1 | 0.00 | 0.00 | 0.00 | 1005.9 | |
| 20260506193921 | -17 | 175 | 1.6 | 8.0 | 0.00 | 0.00 | 0.00 | 1006.0 | |
| 20260506193411 | -17 | 191 | 1.6 | 6.4 | 0.00 | 0.00 | 0.00 | 1006.1 | |
| 20260506192613 | -17 | 10 | 0.0 | 6.4 | 0.00 | 0.00 | 0.00 | 1006.3 | |
| 20260506192103 | -17 | 104 | 0.0 | 4.8 | 0.00 | 0.00 | 0.00 | 1006.4 | |
| 20260506191319 | -17 | 117 | 0.0 | 4.8 | 0.00 | 0.00 | 0.00 | 1006.4 | |
| 20260506191041 | -17 | 106 | 0.0 | 4.8 | 0.00 | 0.00 | 0.00 | 1006.5 | |
| 20260506190542 | -17 | 124 | 0.0 | 4.8 | 0.00 | 0.00 | 0.00 | 1006.6 | |
| 20260506185801 | -17 | 10 | 0.0 | 4.8 | 0.00 | 0.00 | 0.00 | 1006.7 | |
| 20260506185252 | -17 | 10 | 0.0 | 4.8 | 0.00 | 0.00 | 0.00 | 1006.8 | |
| 20260506184741 | -17 | 125 | 0.0 | 3.2 | 0.00 | 0.00 | 0.00 | 1006.9 | |
| 20260506184509 | -17 | 138 | 1.6 | 6.4 | 0.00 | 0.00 | 0.00 | 1006.9 | |
| 20260506183958 | -17 | 10 | 3.2 | 9.7 | 0.00 | 0.00 | 0.00 | 1007.0 | |
| 20260506183217 | -17 | 10 | 4.8 | 9.7 | 0.00 | 0.00 | 0.00 | 1007.1 | |
| 20260506182707 | -17 | 10 | 4.8 | 9.7 | 0.00 | 0.00 | 0.00 | 1007.2 | |
| 20260506182157 | -17 | 10 | 6.4 | 12.9 | 0.00 | 0.00 | 0.00 | 1007.2 | |
| 20260506181918 | -17 | 10 | 6.4 | 12.9 | 0.00 | 0.00 | 0.00 | 1007.2 | |
| 20260506181406 | -17 | 10 | 8.0 | 14.5 | 0.00 | 0.00 | 0.00 | 1007.2 | |
| 20260506180856 | -17 | 133 | 9.7 | 14.5 | 0.00 | 0.00 | 0.00 | 1007.3 | |
| 20260506180115 | -17 | 10 | 9.7 | 16.1 | 0.00 | 0.00 | 0.00 | 1007.3 | |
| 20260506175605 | -17 | 10 | 11.3 | 16.1 | 0.00 | 0.00 | 0.00 | 1007.2 | |
| 20260506175055 | -17 | 10 | 12.9 | 17.7 | 0.00 | 0.00 | 0.00 | 1007.2 | |
| 20260506174817 | -17 | 10 | 12.9 | 17.7 | 0.00 | 0.00 | 0.00 | 1007.2 | |
| 20260506174035 | -17 | 163 | 12.9 | 17.7 | 0.00 | 0.00 | 0.00 | 1007.2 | |
| 20260506173525 | -17 | 10 | 14.5 | 19.3 | 0.00 | 0.00 | 0.00 | 1007.2 | |
| 20260506173015 | -17 | 10 | 11.3 | 19.3 | 0.00 | 0.00 | 0.00 | 1007.2 | |
| 20260506172459 | -17 | 10 | 9.7 | 16.1 | 0.00 | 0.00 | 0.00 | 1007.3 | |
| 20260506172222 | -17 | 10 | 9.7 | 16.1 | 0.00 | 0.00 | 0.00 | 1007.3 | |
| 20260506171451 | -17 | 10 | 11.3 | 17.7 | 0.00 | 0.00 | 0.00 | 1007.2 | |
| 20260506170942 | -17 | 10 | 12.9 | 17.7 | 0.00 | 0.00 | 0.00 | 1007.2 | |
| 20260506170431 | -17 | 10 | 11.3 | 17.7 | 0.00 | 0.00 | 0.00 | 1007.2 | |
| 20260506165920 | -17 | 10 | 11.3 | 16.1 | 0.00 | 0.00 | 0.00 | 1007.3 | |
| 20260506165411 | -17 | 10 | 9.7 | 16.1 | 0.00 | 0.00 | 0.00 | 1007.3 | |
| 20260506164901 | -17 | 10 | 8.0 | 14.5 | 0.00 | 0.00 | 0.00 | 1007.2 | |
| 20260506164352 | -17 | 10 | 4.8 | 12.9 | 0.00 | 0.00 | 0.00 | 1007.3 | |
| 20260506164113 | -17 | 10 | 3.2 | 6.4 | 0.00 | 0.00 | 0.00 | 1007.3 | |
| 20260506163325 | -17 | 10 | 4.8 | 11.3 | 0.00 | 0.00 | 0.00 | 1007.3 | |
| 20260506163039 | -17 | 131 | 4.8 | 12.9 | 0.00 | 0.00 | 0.00 | 1007.2 | |
| 20260506162257 | -17 | 10 | 6.4 | 12.9 | 0.00 | 0.00 | 0.00 | 1007.2 | |
| 20260506162019 | -17 | 10 | 6.4 | 9.7 | 0.00 | 0.00 | 0.00 | 1007.1 | |
| 20260506161237 | -17 | 10 | 6.4 | 12.9 | 0.00 | 0.00 | 0.00 | 1007.0 | |
| 20260506160730 | -17 | 10 | 6.4 | 12.9 | 0.00 | 0.00 | 0.00 | 1007.0 | |
| 20260506160222 | -17 | 10 | 6.4 | 12.9 | 0.00 | 0.00 | 0.00 | 1006.9 | |
| 20260506155943 | -17 | 10 | 9.7 | 16.1 | 0.00 | 0.00 | 0.00 | 1006.8 | |
| 20260506155434 | -17 | 10 | 9.7 | 14.5 | 0.00 | 0.00 | 0.00 | 1006.8 | |
| 20260506154657 | -17 | 10 | 11.3 | 17.7 | 0.00 | 0.00 | 0.00 | 1006.6 | |
| 20260506154156 | -17 | 10 | 11.3 | 17.7 | 0.00 | 0.00 | 0.00 | 1006.6 | |
| 20260506153646 | -17 | 10 | 11.3 | 17.7 | 0.00 | 0.00 | 0.00 | 1006.5 | |
| 20260506153143 | -17 | 10 | 12.9 | 17.7 | 0.00 | 0.00 | 0.00 | 1006.6 | |
| 20260506152637 | -17 | 10 | 12.9 | 17.7 | 0.00 | 0.00 | 0.00 | 1006.4 | |
| 20260506152131 | -17 | 10 | 14.5 | 17.7 | 0.00 | 0.00 | 0.00 | 1006.4 | |
| 20260506151625 | -17 | 10 | 12.9 | 17.7 | 0.00 | 0.00 | 0.00 | 1006.3 | |
| 20260506151122 | -17 | 10 | 11.3 | 17.7 | 0.00 | 0.00 | 0.00 | 1006.2 | |
| 20260506150847 | -17 | 114 | 14.5 | 17.7 | 0.00 | 0.00 | 0.00 | 1006.3 | |
| 20260506150112 | -17 | 10 | 14.5 | 19.3 | 0.00 | 0.00 | 0.00 | 1006.1 | |
| 20260506145608 | -17 | 129 | 14.5 | 19.3 | 0.00 | 0.00 | 0.00 | 1006.1 | |
| 20260506145335 | -17 | 126 | 14.5 | 19.3 | 0.00 | 0.00 | 0.00 | 1006.1 | |
| 20260506144556 | -17 | 10 | 14.5 | 19.3 | 0.00 | 0.00 | 0.00 | 1006.1 | |
| 20260506144324 | -17 | 10 | 12.9 | 17.7 | 0.00 | 0.00 | 0.00 | 1006.1 | |
| 20260506143547 | -17 | 10 | 11.3 | 17.7 | 0.00 | 0.00 | 0.00 | 1006.0 | |
| 20260506143313 | -17 | 10 | 11.3 | 16.1 | 0.00 | 0.00 | 0.00 | 1005.9 | |
| 20260506142538 | -17 | 125 | 11.3 | 17.7 | 0.00 | 0.00 | 0.00 | 1005.8 | |
| 20260506142026 | -17 | 10 | 12.9 | 17.7 | 0.00 | 0.00 | 0.00 | 1005.8 | |
| 20260506141518 | -17 | 111 | 9.7 | 16.1 | 0.00 | 0.00 | 0.00 | 1005.8 | |
| 20260506141017 | -17 | 117 | 8.0 | 14.5 | 0.00 | 0.00 | 0.00 | 1006.1 | |
| 20260506140512 | -17 | 121 | 8.0 | 14.5 | 0.00 | 0.00 | 0.00 | 1006.0 | |
| 20260506135959 | -17 | 117 | 8.0 | 14.5 | 0.00 | 0.00 | 0.00 | 1006.0 | |
| 20260506135451 | -17 | 118 | 6.4 | 12.9 | 0.00 | 0.00 | 0.00 | 1006.1 | |
| 20260506134949 | -17 | 117 | 6.4 | 12.9 | 0.00 | 0.00 | 0.00 | 1006.0 | |
| 20260506134711 | -17 | 115 | 8.0 | 14.5 | 0.00 | 0.00 | 0.00 | 1005.9 | |
| 20260506133933 | -17 | 108 | 6.4 | 12.9 | 0.00 | 0.00 | 0.00 | 1005.9 | |
| 20260506133427 | -17 | 108 | 6.4 | 12.9 | 0.00 | 0.00 | 0.00 | 1006.0 | |
| 20260506132926 | -17 | 102 | 8.0 | 12.9 | 0.00 | 0.00 | 0.00 | 1005.9 | |
| 20260506132422 | -17 | 124 | 6.4 | 12.9 | 0.00 | 0.00 | 0.00 | 1005.8 | |
| 20260506131916 | -17 | 127 | 6.4 | 12.9 | 0.00 | 0.00 | 0.00 | 1005.8 | |
| 20260506131400 | -17 | 10 | 4.8 | 12.9 | 0.00 | 0.00 | 0.00 | 1005.9 | |
| 20260506130853 | -17 | 115 | 6.4 | 11.3 | 0.00 | 0.00 | 0.00 | 1005.9 | |
| 20260506130617 | -17 | 116 | 6.4 | 11.3 | 0.00 | 0.00 | 0.00 | 1005.9 | |
| 20260506125842 | -17 | 117 | 6.4 | 11.3 | 0.00 | 0.00 | 0.00 | 1005.8 | |
| 20260506125329 | -17 | 111 | 4.8 | 11.3 | 0.00 | 0.00 | 0.00 | 1005.8 | |
| 20260506124820 | -17 | 120 | 3.2 | 6.4 | 0.00 | 0.00 | 0.00 | 1005.9 | |
| 20260506124312 | -17 | 116 | 3.2 | 6.4 | 0.00 | 0.00 | 0.00 | 1005.9 | |
| 20260506124023 | -17 | 137 | 4.8 | 9.7 | 0.00 | 0.00 | 0.00 | 1005.8 | |
| 20260506123246 | -17 | 10 | 4.8 | 6.4 | 0.00 | 0.00 | 0.00 | 1005.7 | |
| 20260506122736 | -17 | 121 | 3.2 | 6.4 | 0.00 | 0.00 | 0.00 | 1005.7 | |
| 20260506122228 | -17 | 10 | 4.8 | 6.4 | 0.00 | 0.00 | 0.00 | 1005.7 | |
| 20260506121726 | -17 | 125 | 3.2 | 6.4 | 0.00 | 0.00 | 0.00 | 1005.7 | |
| 20260506121217 | -17 | 127 | 3.2 | 6.4 | 0.00 | 0.00 | 0.00 | 1005.6 | |
| 20260506120706 | -17 | 124 | 3.2 | 6.4 | 0.00 | 0.00 | 0.00 | 1005.6 | |
| 20260506120156 | -17 | 129 | 3.2 | 6.4 | 0.00 | 0.00 | 0.00 | 1005.5 | |
| 20260506115647 | -17 | 118 | 3.2 | 6.4 | 0.00 | 0.00 | 0.00 | 1005.5 | |
| 20260506115408 | -17 | 131 | 3.2 | 6.4 | 0.00 | 0.00 | 0.00 | 1005.4 | |
| 20260506114626 | -17 | 127 | 4.8 | 8.0 | 0.00 | 0.00 | 0.00 | 1005.4 | |
| 20260506114117 | -17 | 10 | 3.2 | 8.0 | 0.00 | 0.00 | 0.00 | 1005.3 | |
| 20260506113606 | -17 | 137 | 3.2 | 9.7 | 0.00 | 0.00 | 0.00 | 1005.3 | |
| 20260506113056 | -17 | 138 | 4.8 | 9.7 | 0.00 | 0.00 | 0.00 | 1005.3 | |
| 20260506112546 | -17 | 10 | 6.4 | 12.9 | 0.00 | 0.00 | 0.00 | 1005.4 | |
| 20260506112036 | -17 | 10 | 6.4 | 14.5 | 0.00 | 0.00 | 0.00 | 1005.3 | |
| 20260506111526 | -17 | 139 | 6.4 | 14.5 | 0.00 | 0.00 | 0.00 | 1005.3 | |
| 20260506111017 | -17 | 10 | 4.8 | 12.9 | 0.00 | 0.00 | 0.00 | 1005.3 | |
| 20260506110504 | -17 | 10 | 4.8 | 14.5 | 0.00 | 0.00 | 0.00 | 1005.3 | |
| 20260506105954 | -17 | 10 | 3.2 | 14.5 | 0.00 | 0.00 | 0.00 | 1005.3 | |
| 20260506105444 | -17 | 10 | 0.0 | 3.2 | 0.00 | 0.00 | 0.00 | 1005.4 | |
| 20260506104934 | -17 | 10 | 0.0 | 3.2 | 0.00 | 0.00 | 0.00 | 1005.5 | |
| 20260506104424 | -17 | 10 | 0.0 | 1.6 | 0.00 | 0.00 | 0.00 | 1005.5 | |
| 20260506103915 | -17 | 10 | 0.0 | 3.2 | 0.00 | 0.00 | 0.00 | 1005.5 | |
| 20260506103406 | -17 | 10 | 0.0 | 3.2 | 0.00 | 0.00 | 0.00 | 1005.3 | |
| 20260506102857 | -17 | 10 | 0.0 | 9.7 | 0.00 | 0.00 | 0.00 | 1005.2 | |
| 20260506102343 | -17 | 10 | 0.0 | 9.7 | 0.00 | 0.00 | 0.00 | 1005.3 | |
| 20260506102103 | -17 | 156 | 0.0 | 4.8 | 0.00 | 0.00 | 0.00 | 1005.3 | |
| 20260506101322 | -17 | 156 | 0.0 | 1.6 | 0.00 | 0.00 | 0.00 | 1005.3 | |
| 20260506101043 | -17 | 139 | 0.0 | 1.6 | 0.00 | 0.00 | 0.00 | 1005.3 | |
| 20260506100255 | -17 | 150 | 0.0 | 3.2 | 0.00 | 0.00 | 0.00 | 1005.1 | |
| 20260506100015 | -17 | 10 | 0.0 | 3.2 | 0.00 | 0.00 | 0.00 | 1005.0 | |
| 20260506095234 | -17 | 144 | 0.0 | 0.0 | 0.00 | 0.00 | 0.00 | 1004.9 | |
| 20260506094724 | -17 | 112 | 0.0 | 0.0 | 0.00 | 0.00 | 0.00 | 1005.0 | |
| 20260506094219 | -17 | 112 | 0.0 | 0.0 | 0.00 | 0.00 | 0.00 | 1005.2 | |
| 20260506093709 | -17 | 116 | 0.0 | 1.6 | 0.00 | 0.00 | 0.00 | 1005.1 | |
| 20260506093158 | -17 | 117 | 0.0 | 0.0 | 0.00 | 0.00 | 0.00 | 1005.1 | |
| 20260506092649 | -17 | 117 | 0.0 | 1.6 | 0.00 | 0.00 | 0.00 | 1005.0 | |
| 20260506092138 | -17 | 115 | 0.0 | 1.6 | 0.00 | 0.00 | 0.00 | 1005.1 | |
| 20260506091628 | -17 | 119 | 0.0 | 1.6 | 0.00 | 0.00 | 0.00 | 1005.0 | |
| 20260506091118 | -17 | 117 | 0.0 | 1.6 | 0.00 | 0.00 | 0.00 | 1005.0 | |
| 20260506090609 | -17 | 113 | 0.0 | 1.6 | 0.00 | 0.00 | 0.00 | 1005.1 | |
| 20260506090057 | -17 | 113 | 0.0 | 3.2 | 0.00 | 0.00 | 0.00 | 1005.0 | |
| 20260506085549 | -17 | 129 | 0.0 | 3.2 | 0.00 | 0.00 | 0.00 | 1005.0 | |
| 20260506085038 | -17 | 140 | 1.6 | 3.2 | 0.00 | 0.00 | 0.00 | 1005.0 | |
| 20260506084528 | -17 | 143 | 1.6 | 4.8 | 0.00 | 0.00 | 0.00 | 1005.0 | |
| 20260506084018 | -17 | 135 | 1.6 | 4.8 | 0.00 | 0.00 | 0.00 | 1005.0 | |
| 20260506083506 | -17 | 127 | 3.2 | 6.4 | 0.00 | 0.00 | 0.00 | 1005.0 | |
| 20260506082956 | -17 | 126 | 3.2 | 6.4 | 0.00 | 0.00 | 0.00 | 1005.1 | |
| 20260506082452 | -17 | 116 | 3.2 | 9.7 | 0.00 | 0.00 | 0.00 | 1005.1 | |
| 20260506081942 | -17 | 133 | 4.8 | 6.4 | 0.00 | 0.00 | 0.00 | 1005.1 | |
| 20260506081704 | -17 | 123 | 4.8 | 9.7 | 0.00 | 0.00 | 0.00 | 1005.0 | |
| 20260506080922 | -17 | 128 | 4.8 | 8.0 | 0.00 | 0.00 | 0.00 | 1005.1 | |
| 20260506080410 | -17 | 138 | 3.2 | 9.7 | 0.00 | 0.00 | 0.00 | 1005.2 | |
| 20260506080124 | -17 | 133 | 3.2 | 9.7 | 0.00 | 0.00 | 0.00 | 1005.3 | |
| 20260506073304 | -17 | 10 | 8.0 | 16.1 | 0.00 | 0.00 | 0.00 | 1005.6 | |
| 20260506072752 | -17 | 10 | 8.0 | 16.1 | 0.00 | 0.00 | 0.00 | 1005.6 | |
| 20260506072513 | -17 | 161 | 6.4 | 14.5 | 0.00 | 0.00 | 0.00 | 1005.7 | |
| 20260506071732 | -17 | 10 | 4.8 | 14.5 | 0.00 | 0.00 | 0.00 | 1005.7 | |
| 20260506071223 | -17 | 10 | 4.8 | 9.7 | 0.00 | 0.00 | 0.00 | 1005.9 | |
| 20260506070712 | -17 | 10 | 4.8 | 9.7 | 0.00 | 0.00 | 0.00 | 1006.0 | |
| 20260506070203 | -17 | 138 | 4.8 | 9.7 | 0.00 | 0.00 | 0.00 | 1006.2 | |
| 20260506062044 | -17 | 10 | 6.4 | 14.5 | 0.00 | 0.00 | 0.00 | 1006.3 | |
| 20260506061534 | -17 | 10 | 4.8 | 14.5 | 0.00 | 0.00 | 0.00 | 1006.3 | |
| 20260506061023 | -17 | 10 | 6.4 | 14.5 | 0.00 | 0.00 | 0.00 | 1006.3 | |
| 20260506060512 | -17 | 10 | 6.4 | 16.1 | 0.00 | 0.00 | 0.00 | 1006.3 | |
| 20260506051350 | -17 | 10 | 14.5 | 20.9 | 0.00 | 0.00 | 0.00 | 1005.9 | |
| 20260506050843 | -17 | 10 | 14.5 | 20.9 | 0.00 | 0.00 | 0.00 | 1005.9 | |
| 20260506050338 | -17 | 194 | 14.5 | 19.3 | 0.00 | 0.00 | 0.00 | 1005.9 | |
| 20260506044820 | -17 | 10 | 17.7 | 24.1 | 0.00 | 0.00 | 0.00 | 1005.8 | |
| 20260506044318 | -17 | 10 | 14.5 | 24.1 | 0.00 | 0.00 | 0.00 | 1005.8 | |
| 20260506043808 | -17 | 10 | 12.9 | 22.5 | 0.00 | 0.00 | 0.00 | 1005.8 | |
| 20260506043305 | -17 | 10 | 14.5 | 22.5 | 0.00 | 0.00 | 0.00 | 1005.8 | |
| 20260506042801 | -17 | 10 | 16.1 | 22.5 | 0.00 | 0.00 | 0.00 | 1005.7 | |
| 20260506042254 | -17 | 10 | 16.1 | 20.9 | 0.00 | 0.00 | 0.00 | 1005.6 | |
| 20260506041748 | -17 | 164 | 16.1 | 20.9 | 0.00 | 0.00 | 0.00 | 1005.7 | |
| 20260506041245 | -17 | 10 | 14.5 | 20.9 | 0.00 | 0.00 | 0.00 | 1005.7 | |
| 20260506040737 | -17 | 10 | 14.5 | 19.3 | 0.00 | 0.00 | 0.00 | 1005.7 | |
| 20260506040232 | -17 | 10 | 16.1 | 19.3 | 0.00 | 0.00 | 0.00 | 1005.9 | |
| 20260506035959 | -17 | 10 | 16.1 | 19.3 | 0.00 | 0.00 | 0.00 | 1005.8 | |
| 20260506035217 | -17 | 10 | 14.5 | 19.3 | 0.00 | 0.00 | 0.00 | 1005.7 | |
| 20260506034947 | -17 | 10 | 12.9 | 19.3 | 0.00 | 0.00 | 0.00 | 1005.7 | |
| 20260506034205 | -17 | 10 | 14.5 | 20.9 | 0.00 | 0.00 | 0.00 | 1005.7 | |
| 20260506033702 | -17 | 10 | 14.5 | 20.9 | 0.00 | 0.00 | 0.00 | 1005.7 | |
| 20260506033150 | -17 | 10 | 14.5 | 19.3 | 0.00 | 0.00 | 0.00 | 1005.6 | |
| 20260506032645 | -17 | 10 | 12.9 | 19.3 | 0.00 | 0.00 | 0.00 | 1005.6 | |
| 20260506032141 | -17 | 10 | 14.5 | 19.3 | 0.00 | 0.00 | 0.00 | 1005.5 | |
| 20260506031639 | -17 | 10 | 11.3 | 19.3 | 0.00 | 0.00 | 0.00 | 1005.5 | |
| 20260506031128 | -17 | 138 | 9.7 | 19.3 | 0.00 | 0.00 | 0.00 | 1005.5 | |
| 20260506030855 | -17 | 10 | 11.3 | 19.3 | 0.00 | 0.00 | 0.00 | 1005.5 | |
| 20260506030119 | -17 | 10 | 14.5 | 19.3 | 0.00 | 0.00 | 0.00 | 1005.4 | |
| 20260506025612 | -17 | 10 | 14.5 | 22.5 | 0.00 | 0.00 | 0.00 | 1005.3 | |
| 20260506025334 | -17 | 10 | 14.5 | 22.5 | 0.00 | 0.00 | 0.00 | 1005.2 | |
| 20260506024556 | -17 | 10 | 12.9 | 17.7 | 0.00 | 0.00 | 0.00 | 1005.1 | |
| 20260506024320 | -17 | 10 | 12.9 | 19.3 | 0.00 | 0.00 | 0.00 | 1005.1 | |
| 20260506023809 | -17 | 10 | 14.5 | 19.3 | 0.00 | 0.00 | 0.00 | 1004.9 | |
| 20260506022524 | -17 | 10 | 14.5 | 22.5 | 0.00 | 0.00 | 0.00 | 1004.8 | |
| 20260506022015 | -17 | 10 | 14.5 | 19.3 | 0.00 | 0.00 | 0.00 | 1004.7 | |
| 20260506021515 | -17 | 10 | 14.5 | 22.5 | 0.00 | 0.00 | 0.00 | 1004.7 | |
| 20260506021016 | -17 | 10 | 14.5 | 22.5 | 0.00 | 0.00 | 0.00 | 1004.7 | |
| 20260506020507 | -17 | 10 | 9.7 | 19.3 | 0.00 | 0.00 | 0.00 | 1004.6 | |
| 20260506020228 | -17 | 10 | 3.2 | 19.3 | 0.00 | 0.00 | 0.00 | 1004.5 | |
| 20260506015447 | -17 | 10 | 0.0 | 8.0 | 0.00 | 0.00 | 0.00 | 1004.5 | |
| 20260506014937 | -17 | 147 | 3.2 | 19.3 | 0.00 | 0.00 | 0.00 | 1004.4 | |
| 20260506014425 | -17 | 10 | 4.8 | 19.3 | 0.00 | 0.00 | 0.00 | 1004.3 | |
| 20260506013915 | -17 | 10 | 8.0 | 22.5 | 0.00 | 0.00 | 0.00 | 1004.4 | |
| 20260506013636 | -17 | 10 | 14.5 | 22.5 | 0.00 | 0.00 | 0.00 | 1004.4 | |
| 20260506012854 | -17 | 10 | 14.5 | 20.9 | 0.00 | 0.00 | 0.00 | 1004.3 | |
| 20260506012345 | -17 | 10 | 16.1 | 20.9 | 0.00 | 0.00 | 0.00 | 1004.2 | |
| 20260506011833 | -17 | 10 | 17.7 | 19.3 | 0.00 | 0.00 | 0.00 | 1004.1 | |
| 20260506011553 | -17 | 10 | 17.7 | 22.5 | 0.00 | 0.00 | 0.00 | 1004.0 | |
| 20260506010813 | -17 | 10 | 17.7 | 22.5 | 0.00 | 0.00 | 0.00 | 1003.9 | |
| 20260506010303 | -17 | 10 | 17.7 | 24.1 | 0.00 | 0.00 | 0.00 | 1004.0 | |
| 20260506010023 | -17 | 10 | 17.7 | 24.1 | 0.00 | 0.00 | 0.00 | 1003.8 | |
| 20260506005243 | -17 | 10 | 16.1 | 20.9 | 0.00 | 0.00 | 0.00 | 1003.8 | |
| 20260506004732 | -17 | 10 | 16.1 | 24.1 | 0.00 | 0.00 | 0.00 | 1003.6 | |
| 20260506004223 | -17 | 10 | 17.7 | 24.1 | 0.00 | 0.00 | 0.00 | 1003.6 | |
| 20260506003943 | -17 | 10 | 16.1 | 22.5 | 0.00 | 0.00 | 0.00 | 1003.6 | |
| 20260506003203 | -17 | 10 | 16.1 | 20.9 | 0.00 | 0.00 | 0.00 | 1003.7 | |
| 20260506002652 | -17 | 10 | 17.7 | 24.1 | 0.00 | 0.00 | 0.00 | 1003.6 | |
| 20260506002140 | -17 | 10 | 17.7 | 24.1 | 0.00 | 0.00 | 0.00 | 1003.6 | |
| 20260506001625 | -17 | 10 | 17.7 | 24.1 | 0.00 | 0.00 | 0.00 | 1003.6 | |
| 20260506001347 | -17 | 10 | 17.7 | 24.1 | 0.00 | 0.00 | 0.00 | 1003.6 | |
| 20260506000604 | -17 | 10 | 17.7 | 22.5 | 0.00 | 0.00 | 0.00 | 1003.6 | |
| 20260506000056 | -17 | 10 | 17.7 | 24.1 | 0.00 | 0.00 | 0.00 | 1003.7 | |
| 20260505235543 | -17 | 10 | 17.7 | 24.1 | 0.00 | 0.00 | 0.00 | 1003.7 | |
| 20260505235033 | -17 | 10 | 17.7 | 25.7 | 0.00 | 0.00 | 0.00 | 1003.7 | |
| 20260505234528 | -17 | 185 | 19.3 | 25.7 | 0.00 | 0.00 | 0.00 | 1003.7 | |
| 20260505234019 | -17 | 10 | 19.3 | 25.7 | 0.00 | 0.00 | 0.00 | 1003.7 | |
| 20260505233739 | -17 | 168 | 17.7 | 24.1 | 0.00 | 0.00 | 0.00 | 1003.7 | |
| 20260505233227 | -17 | 10 | 17.7 | 25.7 | 0.00 | 0.00 | 0.00 | 1003.7 | |
| 20260505232456 | -17 | 10 | 19.3 | 25.7 | 0.00 | 0.00 | 0.00 | 1003.7 | |
| 20260505232218 | -17 | 10 | 19.3 | 25.7 | 0.00 | 0.00 | 0.00 | 1003.7 | |
| 20260505231434 | -17 | 10 | 17.7 | 25.7 | 0.00 | 0.00 | 0.00 | 1003.7 | |
| 20260505230933 | -17 | 10 | 17.7 | 24.1 | 0.00 | 0.00 | 0.00 | 1003.7 | |
| 20260505230434 | -17 | 10 | 17.7 | 24.1 | 0.00 | 0.00 | 0.00 | 1003.9 | |
| 20260505225923 | -17 | 210 | 17.7 | 22.5 | 0.00 | 0.00 | 0.00 | 1003.9 | |
| 20260505225412 | -17 | 163 | 17.7 | 27.4 | 0.00 | 0.00 | 0.00 | 1003.9 | |
| 20260505224903 | -17 | 10 | 19.3 | 27.4 | 0.00 | 0.00 | 0.00 | 1003.9 | |
| 20260505224352 | -17 | 10 | 19.3 | 25.7 | 0.00 | 0.00 | 0.00 | 1003.9 | |
| 20260505223843 | -17 | 10 | 19.3 | 25.7 | 0.00 | 0.00 | 0.00 | 1004.0 | |
| 20260505223604 | -17 | 10 | 19.3 | 24.1 | 0.00 | 0.00 | 0.00 | 1004.0 | |
| 20260505222824 | -17 | 10 | 19.3 | 24.1 | 0.00 | 0.00 | 0.00 | 1004.1 | |
| 20260505222313 | -17 | 10 | 19.3 | 24.1 | 0.00 | 0.00 | 0.00 | 1004.0 | |
| 20260505221803 | -17 | 10 | 17.7 | 22.5 | 0.00 | 0.00 | 0.00 | 1004.1 | |
| 20260505221252 | -17 | 10 | 17.7 | 24.1 | 0.00 | 0.00 | 0.00 | 1004.1 | |
| 20260505220743 | -17 | 10 | 17.7 | 24.1 | 0.00 | 0.00 | 0.00 | 1004.0 | |
| 20260505220504 | -17 | 10 | 19.3 | 25.7 | 0.00 | 0.00 | 0.00 | 1004.2 | |
| 20260505215723 | -17 | 10 | 19.3 | 25.7 | 0.00 | 0.00 | 0.00 | 1004.2 | |
| 20260505215212 | -17 | 161 | 17.7 | 24.1 | 0.00 | 0.00 | 0.00 | 1004.4 | |
| 20260505214702 | -17 | 10 | 17.7 | 24.1 | 0.00 | 0.00 | 0.00 | 1004.4 | |
| 20260505214423 | -17 | 10 | 17.7 | 24.1 | 0.00 | 0.00 | 0.00 | 1004.6 | |
| 20260505213643 | -17 | 10 | 17.7 | 22.5 | 0.00 | 0.00 | 0.00 | 1004.5 | |
| 20260505213404 | -17 | 10 | 19.3 | 25.7 | 0.00 | 0.00 | 0.00 | 1004.6 | |
| 20260505212624 | -17 | 153 | 17.7 | 25.7 | 0.00 | 0.00 | 0.00 | 1004.6 | |
| 20260505212112 | -17 | 163 | 17.7 | 24.1 | 0.00 | 0.00 | 0.00 | 1004.8 | |
| 20260505211603 | -17 | 10 | 17.7 | 22.5 | 0.00 | 0.00 | 0.00 | 1004.7 | |
| 20260505211052 | -17 | 10 | 17.7 | 24.1 | 0.00 | 0.00 | 0.00 | 1004.7 | |
| 20260505210544 | -17 | 10 | 17.7 | 24.1 | 0.00 | 0.00 | 0.00 | 1004.8 | |
| 20260505210303 | -17 | 10 | 17.7 | 24.1 | 0.00 | 0.00 | 0.00 | 1004.8 | |
| 20260505205523 | -17 | 10 | 16.1 | 24.1 | 0.00 | 0.00 | 0.00 | 1004.8 | |
| 20260505205012 | -17 | 10 | 17.7 | 22.5 | 0.00 | 0.00 | 0.00 | 1004.9 | |
| 20260505204503 | -17 | 10 | 17.7 | 24.1 | 0.00 | 0.00 | 0.00 | 1004.9 | |
| 20260505204224 | -17 | 10 | 19.3 | 24.1 | 0.00 | 0.00 | 0.00 | 1005.0 | |
| 20260505203442 | -17 | 158 | 19.3 | 24.1 | 0.00 | 0.00 | 0.00 | 1005.1 | |
| 20260505202932 | -17 | 145 | 19.3 | 24.1 | 0.00 | 0.00 | 0.00 | 1005.1 | |
| 20260505202422 | -17 | 10 | 19.3 | 24.1 | 0.00 | 0.00 | 0.00 | 1005.2 | |
| 20260505201904 | -17 | 10 | 17.7 | 22.5 | 0.00 | 0.00 | 0.00 | 1005.2 |